STARLINK-4379 (53217 NORAD) Tracking and Keplerian Element Data

This shows tracking and keplerian element data for the satellite.

Feedback or suggestion? Click here.




ElementValue
Catalog53217
NameSTARLINK-4379
Epoch Orbit1072
Epoch Day270.14034441
Epoch Year2022
RAAN329.9643
Inclination97.6539
Eccentricity0.0001401
Argument of Perigee131.9055
Mean Anonmoly228.2289
Mean Motion15.0125645
Decay Rate-1.004E-05
L11 53217U 22084AE 22270.14034441 -.00001004 00000+0 -73564-4 0 9993
L22 53217 97.6539 329.9643 0001401 131.9055 228.2289 15.01256450 10727

Live tracking and technical data element details for STARLINK-4379 (NORAD 53217). STARLINK-4379 can be tracked NOW for your location showing map with azimuth and elevation plus other details from your city location.

Track the satellite on the map from your city or location and see movement details for azimuth, elevation, latitude, longitude, range, height, and movement on the map or in text.







IsCatalogInMostPopularTable: catalog: 53217, numindb: 3
Update: records affected: 1



GetName: 53217 STARLINK-4379

Hit Count: updated at: Fri, 30 Sep 2022 04:14:17 GMT